Home > Time Zones > World Clock > Weather > Togo > Lome > Past weeks

Flag for Togo Weather past 2 weeks in Lome, Togo

Now
77 °F

Partly cloudy.


Feels Like: 78 °F
Forecast: 74 / 84 °F
Wind: 6 mph from Southwest

Location: Lome Airport

Current Time: Jul 6, 2015 at 6:09:51 AM

Latest Report: Jul 6, 2015 at 5:30 AM


Visibility: 5 mi

Pressure: 29.89 "Hg

Humidity: 100%

Dew point: 77 °F

Location of LomeLocation

Historic Weather in Lome — Graph

°F

Lome temperature yesterday

Maximum temperature yesterday: 84 °F (at 12:00 PM)
Minimum temperature yesterday: 77 °F (at 12:00 AM)
Average temperature yesterday: 79 °F

Past Weeks' High & Low Weather Summary

 TemperatureHumidityPressure
High86 °F (Jun 24, 10:30 AM)100% (Jun 21, 5:00 AM)30.09 "Hg (Jun 21, 5:00 AM)
Low73 °F (Jun 21, 5:00 AM)66% (Jun 24, 10:30 AM)29.86 "Hg (Jul 5, 4:30 PM)
Average79 °F89%29.98 "Hg
* Reported Jun 21 5:00 AM — Jul 6 5:00 AM, Lome, Weather by CustomWeather, © 2015

Note: Actual official high and low records may vary slightly from our data, if they occured in-between our weather recording intervals... More about our weather records

Advertising

Lome weather history for previous 24 hours

 ConditionsComfort  
Time TempWeatherWind HumidityBarometerVisibility
5:00 AM
Mon, Jul 6
77 °FPartly cloudy.7 mph100%29.89 "Hg5 mi
4:30 AM77 °FPartly cloudy.5 mph100%29.89 "HgN/A
4:00 AM77 °FPartly cloudy.5 mph100%29.89 "HgN/A
3:30 AM77 °FPartly cloudy.6 mph100%29.89 "HgN/A
3:00 AM77 °FPartly cloudy.7 mph100%29.89 "HgN/A
2:30 AM77 °FPassing clouds.6 mph100%29.89 "HgN/A
2:00 AM77 °FPassing clouds.6 mph100%29.89 "HgN/A
1:30 AM77 °FPassing clouds.7 mph100%29.89 "HgN/A
1:00 AM77 °FPassing clouds.7 mph100%29.92 "HgN/A
12:30 AM77 °FPassing clouds.6 mph100%29.92 "HgN/A
12:00 AM77 °FPassing clouds.5 mph100%29.92 "HgN/A
11:30 PM
Sun, Jul 5
77 °FPassing clouds.6 mph100%29.92 "HgN/A
11:00 PM77 °FPassing clouds.6 mph100%29.92 "HgN/A
10:30 PM77 °FPassing clouds.6 mph94%29.92 "HgN/A
10:00 PM77 °FPassing clouds.7 mph94%29.92 "HgN/A
9:00 PM77 °FPassing clouds.8 mph100%29.89 "HgN/A
8:30 PM77 °FThunderstorms. Passing clouds.8 mph94%29.89 "HgN/A
8:00 PM77 °FThunderstorms. Passing clouds.9 mph94%29.89 "HgN/A
7:30 PM77 °FThunderstorms. Passing clouds.9 mph94%29.89 "HgN/A
7:00 PM77 °FThunderstorms. Passing clouds.8 mph94%29.89 "HgN/A
6:30 PM79 °FPassing clouds.9 mph89%29.89 "HgN/A
6:00 PM79 °FPassing clouds.12 mph89%29.89 "HgN/A
5:30 PM79 °FPassing clouds.12 mph89%29.86 "HgN/A
5:00 PM79 °FPassing clouds.13 mph89%29.86 "HgN/A
4:30 PM81 °FPassing clouds.13 mph84%29.86 "HgN/A
4:00 PM81 °FPassing clouds.14 mph79%29.89 "HgN/A
3:30 PM82 °FPassing clouds.13 mph79%29.89 "HgN/A
3:00 PM82 °FPassing clouds.15 mph79%29.89 "HgN/A
2:30 PM82 °FPassing clouds.15 mph79%29.89 "HgN/A
2:00 PM82 °FPassing clouds.14 mph79%29.92 "HgN/A
1:30 PM82 °FScattered clouds.13 mph79%29.92 "HgN/A
1:00 PM82 °FScattered clouds.15 mph79%29.92 "HgN/A
12:30 PM84 °FScattered clouds.10 mph79%29.95 "HgN/A
12:00 PM84 °FScattered clouds.12 mph79%29.95 "HgN/A
11:30 AM82 °FScattered clouds.10 mph79%29.95 "HgN/A
11:00 AM82 °FScattered clouds.8 mph79%29.98 "HgN/A
10:30 AM82 °FScattered clouds.9 mph79%29.98 "HgN/A
10:00 AM81 °FScattered clouds.10 mph89%29.98 "HgN/A
9:30 AM79 °FBroken clouds.8 mph89%29.98 "HgN/A
9:00 AM79 °FScattered clouds.9 mph89%29.98 "HgN/A
8:30 AM79 °FScattered clouds.6 mph94%29.98 "HgN/A
8:00 AM77 °FScattered clouds.7 mph94%29.95 "HgN/A
7:30 AM77 °FBroken clouds.6 mph100%29.95 "Hg5 mi
7:00 AM77 °FPassing clouds.5 mph100%29.95 "Hg5 mi
6:30 AM77 °FPassing clouds.2 mph100%29.95 "Hg5 mi
6:00 AM77 °FPassing clouds.5 mph94%29.92 "Hg5 mi
Weather by CustomWeather, © 2015

See weather overviewHow to use our weather pages